GW5607 Weather Reports


time (UTC)temp
C
wind
direction
speed
KPH
gust
KPH
rain 1hr
cm
rain 24hr
cm
rain mn
cm
humidity
%
barometer
mb
20260510220426 22 182 0.0 1.6 0.00 0.00 0.00 57 1016.2
20260510215923 22 54 1.6 3.2 0.00 0.00 0.00 57 1016.3
20260510215420 22 149 0.0 1.6 0.00 0.00 0.00 58 1016.2
20260510214918 22 10 4.8 6.4 0.00 0.00 0.00 58 1016.0
20260510214415 22 150 1.6 1.6 0.00 0.00 0.00 59 1016.0
20260510213912 22 182 1.6 3.2 0.00 0.00 0.00 59 1016.1
20260510213408 22 359 6.4 6.4 0.00 0.00 0.00 58 1016.0
20260510212904 22 150 0.0 1.6 0.00 0.00 0.00 60 1016.1
20260510212401 23 104 4.8 4.8 0.00 0.00 0.00 58 1016.2
20260510211853 23 337 3.2 3.2 0.00 0.00 0.00 59 1016.3
20260510211349 23 179 0.0 1.6 0.00 0.00 0.00 59 1016.3
20260510210844 23 51 3.2 3.2 0.00 0.00 0.00 59 1016.1
20260510210339 23 164 1.6 3.2 0.00 0.00 0.00 60 1016.0
20260510205839 23 213 1.6 1.6 0.00 0.00 0.00 60 1016.0
20260510205334 23 190 4.8 6.4 0.00 0.00 0.00 58 1016.2
20260510204831 24 176 1.6 1.6 0.00 0.00 0.00 58 1016.1
20260510204327 24 312 1.6 1.6 0.00 0.00 0.00 58 1016.1
20260510203824 25 184 1.6 3.2 0.00 0.00 0.00 58 1016.0
20260510203322 25 177 1.6 1.6 0.00 0.00 0.00 59 1015.9
20260510202822 25 355 1.6 3.2 0.00 0.00 0.00 56 1015.7
20260510202317 26 160 1.6 1.6 0.00 0.00 0.00 55 1015.8
20260510201814 26 115 0.0 1.6 0.00 0.00 0.00 53 1015.9
20260510201311 26 178 0.0 1.6 0.00 0.00 0.00 53 1015.8
20260510200808 26 327 3.2 3.2 0.00 0.00 0.00 53 1016.0
20260510200306 26 63 1.6 1.6 0.00 0.00 0.00 52 1016.0
20260510195802 26 177 0.0 0.0 0.00 0.00 0.00 52 1016.3
20260510195259 27 136 1.6 1.6 0.00 0.00 0.00 50 1016.3
20260510194758 27 175 0.0 1.6 0.00 0.00 0.00 48 1016.2
20260510194255 27 177 1.6 1.6 0.00 0.00 0.00 50 1016.1
20260510193752 26 171 1.6 1.6 0.00 0.00 0.00 55 1016.3
20260510193252 26 180 1.6 1.6 0.00 0.00 0.00 51 1016.2
20260510192748 26 146 1.6 1.6 0.00 0.00 0.00 52 1016.3
20260510192243 26 286 3.2 3.2 0.00 0.00 0.00 50 1016.2
20260510191740 26 358 3.2 3.2 0.00 0.00 0.00 51 1016.2
20260510191236 26 186 1.6 3.2 0.00 0.00 0.00 51 1016.2
20260510190734 26 186 0.0 1.6 0.00 0.00 0.00 53 1016.4
20260510190230 26 176 0.0 0.0 0.00 0.00 0.00 53 1016.3
20260510185727 26 178 0.0 1.6 0.00 0.00 0.00 53 1016.1
20260510185225 26 176 0.0 1.6 0.00 0.00 0.00 52 1016.1
20260510184721 26 249 3.2 3.2 0.00 0.00 0.00 52 1016.2
20260510184218 27 13 3.2 3.2 0.00 0.00 0.00 51 1016.2
20260510183714 26 177 0.0 0.0 0.00 0.00 0.00 53 1016.2
20260510183208 26 169 0.0 1.6 0.00 0.00 0.00 51 1016.0
20260510182705 26 184 1.6 1.6 0.00 0.00 0.00 54 1016.3
20260510182201 26 159 1.6 3.2 0.00 0.00 0.00 50 1016.3
20260510181658 26 176 0.0 0.0 0.00 0.00 0.00 52 1016.3
20260510181155 26 174 0.0 1.6 0.00 0.00 0.00 50 1016.2
20260510180650 26 11 3.2 3.2 0.00 0.00 0.00 49 1016.2
20260510180148 26 170 0.0 1.6 0.00 0.00 0.00 50 1016.2
20260510175644 25 176 1.6 1.6 0.00 0.00 0.00 49 1016.2
20260510175140 26 110 4.8 6.4 0.00 0.00 0.00 48 1016.1
20260510174638 25 130 6.4 9.7 0.00 0.00 0.00 50 1016.2
20260510174136 25 53 3.2 4.8 0.00 0.00 0.00 50 1016.1
20260510173631 26 61 3.2 3.2 0.00 0.00 0.00 49 1016.3
20260510173127 26 151 3.2 3.2 0.00 0.00 0.00 48 1016.1
20260510172623 26 154 1.6 1.6 0.00 0.00 0.00 49 1016.3
20260510172119 26 179 1.6 1.6 0.00 0.00 0.00 54 1016.2
20260510171616 25 210 0.0 1.6 0.00 0.00 0.00 55 1016.3
20260510171114 25 175 1.6 1.6 0.00 0.00 0.00 53 1016.5
20260510170610 25 271 3.2 3.2 0.00 0.00 0.00 54 1016.5
20260510170107 25 133 1.6 3.2 0.00 0.00 0.00 53 1016.2
20260510165602 26 51 3.2 4.8 0.00 0.00 0.00 53 1016.7
20260510165058 26 174 1.6 1.6 0.00 0.00 0.00 53 1016.6
20260510164556 25 110 1.6 1.6 0.00 0.00 0.00 54 1016.6
20260510164052 26 15 3.2 3.2 0.00 0.00 0.00 53 1016.4
20260510163548 26 222 3.2 3.2 0.00 0.00 0.00 53 1016.6
20260510163044 26 138 0.0 1.6 0.00 0.00 0.00 52 1016.5
20260510162539 26 174 0.0 1.6 0.00 0.00 0.00 52 1016.5
20260510162036 26 175 0.0 0.0 0.00 0.00 0.00 51 1016.5
20260510161532 26 173 0.0 1.6 0.00 0.00 0.00 48 1016.6
20260510161029 26 172 0.0 1.6 0.00 0.00 0.00 49 1016.2
20260510160526 26 173 0.0 0.0 0.00 0.00 0.00 50 1016.3
20260510160025 26 172 0.0 0.0 0.00 0.00 0.00 50 1016.4
20260510155522 26 179 0.0 1.6 0.00 0.00 0.00 47 1016.3
20260510155018 26 177 0.0 0.0 0.00 0.00 0.00 50 1016.4
20260510154514 26 193 1.6 1.6 0.00 0.00 0.00 49 1016.4
20260510154015 26 175 0.0 1.6 0.00 0.00 0.00 49 1016.3
20260510153510 26 174 0.0 0.0 0.00 0.00 0.00 52 1016.0
20260510153007 25 196 1.6 1.6 0.00 0.00 0.00 49 1016.1
20260510152504 25 172 0.0 0.0 0.00 0.00 0.00 51 1016.1
20260510152000 25 171 0.0 0.0 0.00 0.00 0.00 51 1016.0
20260510151457 25 200 3.2 3.2 0.00 0.00 0.00 50 1015.9
20260510150954 25 173 0.0 0.0 0.00 0.00 0.00 49 1015.6
20260510150450 25 172 0.0 0.0 0.00 0.00 0.00 52 1015.9
20260510145946 25 187 1.6 1.6 0.00 0.00 0.00 51 1015.6
20260510145442 24 168 0.0 0.0 0.00 0.00 0.00 52 1015.5
20260510144939 24 177 0.0 0.0 0.00 0.00 0.00 51 1015.8
20260510144435 24 182 0.0 0.0 0.00 0.00 0.00 52 1015.6
20260510143931 24 169 0.0 0.0 0.00 0.00 0.00 52 1015.6
20260510143426 24 163 0.0 0.0 0.00 0.00 0.00 54 1015.7
20260510142924 23 154 0.0 0.0 0.00 0.00 0.00 53 1015.7
20260510142421 23 178 0.0 0.0 0.00 0.00 0.00 50 1015.7
20260510141917 23 175 0.0 0.0 0.00 0.00 0.00 53 1015.6
20260510141414 23 178 0.0 0.0 0.00 0.00 0.00 55 1015.7
20260510140912 23 180 0.0 0.0 0.00 0.00 0.00 55 1015.4
20260510140408 23 178 0.0 0.0 0.00 0.00 0.00 56 1015.4
20260510135907 23 177 0.0 0.0 0.00 0.00 0.00 57 1015.3
20260510135403 23 177 0.0 0.0 0.00 0.00 0.00 60 1015.5
20260510134901 22 164 0.0 0.0 0.00 0.00 0.00 60 1015.3
20260510134357 22 162 0.0 0.0 0.00 0.00 0.00 60 1015.3
20260510133853 22 173 0.0 0.0 0.00 0.00 0.00 60 1015.4
20260510133349 22 174 0.0 0.0 0.00 0.00 0.00 61 1015.3
20260510132845 21 173 0.0 0.0 0.00 0.00 0.00 62 1015.2
20260510132343 21 172 0.0 0.0 0.00 0.00 0.00 63 1015.4
20260510131840 20 172 0.0 0.0 0.00 0.00 0.00 64 1015.5
20260510131338 20 173 0.0 0.0 0.00 0.00 0.00 66 1015.3
20260510130834 20 170 0.0 0.0 0.00 0.00 0.00 66 1015.3
20260510130331 18 170 0.0 0.0 0.00 0.00 0.00 69 1015.4
20260510125827 18 169 0.0 0.0 0.00 0.00 0.00 71 1015.3
20260510125324 17 164 0.0 0.0 0.00 0.00 0.00 72 1015.2
20260510124821 17 145 1.6 3.2 0.00 0.00 0.00 75 1015.3
20260510124318 17 177 0.0 0.0 0.00 0.00 0.00 72 1015.5
20260510123813 17 176 0.0 0.0 0.00 0.00 0.00 71 1015.5
20260510123309 17 177 0.0 0.0 0.00 0.00 0.00 71 1015.2
20260510122805 17 175 0.0 0.0 0.00 0.00 0.00 73 1015.0
20260510122305 17 175 0.0 0.0 0.00 0.00 0.00 71 1015.3
20260510121758 16 170 0.0 0.0 0.00 0.00 0.00 73 1015.2
20260510121256 16 169 0.0 0.0 0.00 0.00 0.00 75 1015.3
20260510120753 16 169 0.0 0.0 0.00 0.00 0.00 76 1015.3
20260510120249 16 169 0.0 0.0 0.00 0.00 0.00 74 1015.0
20260510115745 15 177 0.0 0.0 0.00 0.00 0.00 73 1015.1
20260510115244 15 177 0.0 0.0 0.00 0.00 0.00 76 1015.2
20260510114738 15 179 0.0 0.0 0.00 0.00 0.00 75 1015.1
20260510114236 15 170 0.0 0.0 0.00 0.00 0.00 77 1015.0
20260510113731 15 167 0.0 0.0 0.00 0.00 0.00 76 1014.6
20260510113228 14 163 0.0 0.0 0.00 0.00 0.00 77 1014.6
20260510112724 13 167 0.0 0.0 0.00 0.00 0.00 79 1014.5
20260510112222 13 173 0.0 0.0 0.00 0.00 0.00 79 1014.3
20260510111717 13 168 0.0 0.0 0.00 0.00 0.00 79 1014.4
20260510111214 13 168 0.0 0.0 0.00 0.00 0.00 81 1014.2
20260510110708 13 165 0.0 0.0 0.00 0.00 0.00 79 1014.2
20260510110206 13 166 0.0 0.0 0.00 0.00 0.00 80 1014.0
20260510105706 13 165 0.0 0.0 0.00 0.00 0.00 81 1014.0
20260510105206 13 164 0.0 0.0 0.00 0.00 0.00 80 1014.0
20260510104703 13 162 0.0 0.0 0.00 0.00 0.00 80 1013.7
20260510104200 13 165 0.0 0.0 0.00 0.00 0.00 79 1013.9
20260510103657 13 162 0.0 0.0 0.00 0.00 0.00 79 1013.8
20260510103154 13 160 0.0 1.6 0.00 0.00 0.00 79 1014.0
20260510102653 13 163 0.0 0.0 0.00 0.00 0.00 78 1013.9
20260510102150 13 159 1.6 1.6 0.00 0.00 0.00 77 1014.0
20260510101647 14 165 1.6 1.6 0.00 0.00 0.00 77 1014.0
20260510101146 14 164 0.0 0.0 0.00 0.00 0.00 75 1014.0
20260510100641 14 163 0.0 0.0 0.00 0.00 0.00 74 1013.9
20260510100139 15 161 1.6 1.6 0.00 0.00 0.00 73 1013.9
20260510095634 15 160 0.0 0.0 0.00 0.00 0.00 71 1013.9
20260510095130 15 97 1.6 3.2 0.00 0.00 0.00 70 1014.0
20260510094629 15 180 1.6 3.2 0.00 0.00 0.00 66 1013.9
20260510094125 16 173 0.0 0.0 0.00 0.00 0.00 63 1013.4
20260510093621 16 174 0.0 0.0 0.00 0.00 0.00 62 1013.4
20260510093118 17 172 0.0 0.0 0.00 0.00 0.00 62 1013.1
20260510092615 17 178 0.0 0.0 0.00 0.00 0.00 59 1012.9
20260510092115 17 179 0.0 0.0 0.00 0.00 0.00 59 1012.9
20260510091611 17 176 0.0 0.0 0.00 0.00 0.00 59 1012.8
20260510091107 17 177 0.0 0.0 0.00 0.00 0.00 59 1012.8
20260510090605 17 173 0.0 0.0 0.00 0.00 0.00 58 1012.7
20260510090100 17 173 0.0 0.0 0.00 0.00 0.00 57 1012.8
20260510085555 17 174 0.0 1.6 0.00 0.00 0.00 57 1012.5
20260510085051 17 171 0.0 1.6 0.00 0.00 0.00 56 1012.6
20260510084548 17 177 0.0 1.6 0.00 0.00 0.00 56 1012.7
20260510084045 17 178 0.0 0.0 0.00 0.00 0.00 56 1012.7
20260510083541 17 178 0.0 0.0 0.00 0.00 0.00 56 1012.6
20260510083038 17 174 0.0 0.0 0.00 0.00 0.00 57 1012.4
20260510082535 17 177 0.0 0.0 0.00 0.00 0.00 57 1012.6
20260510082030 17 178 0.0 0.0 0.00 0.00 0.00 57 1012.5
20260510081525 17 178 0.0 0.0 0.00 0.00 0.00 57 1012.5
20260510081021 17 179 0.0 1.6 0.00 0.00 0.00 57 1012.4
20260510080520 17 178 0.0 1.6 0.00 0.00 0.00 58 1012.5
20260510080017 17 178 0.0 0.0 0.00 0.00 0.00 57 1012.2
20260510075515 18 175 0.0 1.6 0.00 0.00 0.00 57 1012.1
20260510075012 18 184 1.6 1.6 0.00 0.00 0.00 55 1012.1
20260510074510 17 177 0.0 0.0 0.00 0.00 0.00 55 1012.1
20260510074004 18 178 0.0 0.0 0.00 0.00 0.00 55 1011.9
20260510073501 18 175 0.0 0.0 0.00 0.00 0.00 54 1012.0
20260510072957 18 174 0.0 0.0 0.00 0.00 0.00 54 1012.2
20260510072454 18 176 0.0 0.0 0.00 0.00 0.00 54 1012.2
20260510071950 18 178 0.0 0.0 0.00 0.00 0.00 54 1012.3
20260510071446 18 179 0.0 1.6 0.00 0.00 0.00 54 1012.4
20260510070944 18 188 1.6 1.6 0.00 0.00 0.00 54 1012.3
20260510070442 18 174 0.0 0.0 0.00 0.00 0.00 54 1012.3
20260510065937 18 176 0.0 0.0 0.00 0.00 0.00 54 1012.5
20260510065434 18 174 0.0 0.0 0.00 0.00 0.00 54 1012.4
20260510064930 18 177 1.6 1.6 0.00 0.00 0.00 54 1012.6
20260510064428 18 181 0.0 0.0 0.00 0.00 0.00 55 1012.5
20260510063924 18 185 1.6 1.6 0.00 0.00 0.00 54 1012.3
20260510063420 18 178 0.0 1.6 0.00 0.00 0.00 54 1012.4
20260510062919 18 176 0.0 0.0 0.00 0.00 0.00 53 1012.4
20260510062413 18 178 0.0 0.0 0.00 0.00 0.00 53 1012.2
20260510061909 18 178 0.0 0.0 0.00 0.00 0.00 53 1012.2
20260510061406 18 182 0.0 0.0 0.00 0.00 0.00 54 1012.2
20260510060902 18 180 0.0 0.0 0.00 0.00 0.00 52 1012.2
20260510060359 18 175 0.0 0.0 0.00 0.00 0.00 52 1012.3
20260510055855 18 175 0.0 0.0 0.00 0.00 0.00 51 1012.3
20260510055355 18 179 0.0 0.0 0.00 0.00 0.00 52 1012.3
20260510054854 18 176 0.0 0.0 0.00 0.00 0.00 52 1012.0
20260510054350 18 177 0.0 0.0 0.00 0.00 0.00 51 1012.2
20260510053845 18 176 0.0 1.6 0.00 0.00 0.00 52 1012.1
20260510053341 18 174 0.0 0.0 0.00 0.00 0.00 51 1012.1
20260510052837 18 174 0.0 0.0 0.00 0.00 0.00 51 1011.9
20260510052332 18 174 0.0 0.0 0.00 0.00 0.00 51 1012.0
20260510051829 18 176 0.0 0.0 0.00 0.00 0.00 51 1012.1
20260510051326 18 176 0.0 0.0 0.00 0.00 0.00 51 1012.0
20260510050823 18 176 0.0 0.0 0.00 0.00 0.00 51 1011.9
20260510050319 18 174 0.0 0.0 0.00 0.00 0.00 52 1011.7
20260510045817 18 177 0.0 0.0 0.00 0.00 0.00 51 1011.7
20260510045313 18 173 0.0 0.0 0.00 0.00 0.00 51 1011.8
20260510044811 18 171 0.0 0.0 0.00 0.00 0.00 51 1011.8
20260510044308 18 173 0.0 0.0 0.00 0.00 0.00 51 1011.9
20260510043804 18 165 0.0 0.0 0.00 0.00 0.00 51 1011.9
20260510043254 18 173 0.0 0.0 0.00 0.00 0.00 50 1011.7
20260510042752 18 172 0.0 0.0 0.00 0.00 0.00 49 1011.7
20260510042247 18 173 0.0 0.0 0.00 0.00 0.00 50 1011.8
20260510041744 18 173 0.0 0.0 0.00 0.00 0.00 50 1011.8
20260510041241 18 173 0.0 0.0 0.00 0.00 0.00 50 1011.6
20260510040739 18 174 0.0 0.0 0.00 0.00 0.00 50 1011.7
20260510040236 18 174 0.0 0.0 0.00 0.00 0.00 50 1011.9
20260510035730 19 174 0.0 0.0 0.00 0.00 0.00 50 1011.7
20260510035227 19 174 0.0 0.0 0.00 0.00 0.00 49 1011.8
20260510034722 19 174 0.0 0.0 0.00 0.00 0.00 50 1011.8
20260510034221 19 173 0.0 0.0 0.00 0.00 0.00 50 1011.9
20260510033716 19 171 0.0 0.0 0.00 0.00 0.00 50 1011.8
20260510033215 19 167 0.0 0.0 0.00 0.00 0.00 50 1011.8
20260510032710 19 172 0.0 0.0 0.00 0.00 0.00 49 1011.8
20260510032207 19 168 0.0 0.0 0.00 0.00 0.00 49 1011.9
20260510031701 19 174 0.0 0.0 0.00 0.00 0.00 50 1011.9
20260510031158 20 173 0.0 0.0 0.00 0.00 0.00 48 1011.8
20260510030652 20 172 0.0 0.0 0.00 0.00 0.00 47 1011.8
20260510030151 20 170 0.0 0.0 0.00 0.00 0.00 48 1011.7
20260510025648 20 171 0.0 0.0 0.00 0.00 0.00 46 1011.7
20260510025145 20 171 0.0 0.0 0.00 0.00 0.00 48 1011.7
20260510024642 20 173 0.0 0.0 0.00 0.00 0.00 47 1011.5
20260510024138 20 172 0.0 0.0 0.00 0.00 0.00 46 1011.5
20260510023634 20 173 0.0 0.0 0.00 0.00 0.00 45 1011.6
20260510023131 20 172 0.0 0.0 0.00 0.00 0.00 46 1011.7
20260510022626 20 167 0.0 0.0 0.00 0.00 0.00 48 1011.6
20260510022121 20 169 0.0 0.0 0.00 0.00 0.00 46 1011.3
20260510021616 20 168 0.0 0.0 0.00 0.00 0.00 46 1011.5
20260510021114 20 173 0.0 0.0 0.00 0.00 0.00 48 1011.3
20260510020608 20 165 0.0 0.0 0.00 0.00 0.00 46 1011.2
20260510020103 20 167 0.0 0.0 0.00 0.00 0.00 45 1011.3
20260510015600 20 167 0.0 0.0 0.00 0.00 0.00 45 1011.3
20260510015056 20 167 0.0 0.0 0.00 0.00 0.00 46 1011.1
20260510014552 20 169 0.0 0.0 0.00 0.00 0.00 45 1011.1
20260510014049 20 171 0.0 0.0 0.00 0.00 0.00 46 1010.9
20260510013543 20 171 0.0 0.0 0.00 0.00 0.00 49 1011.0
20260510013040 20 171 0.0 0.0 0.00 0.00 0.00 48 1010.8
20260510012533 20 171 0.0 0.0 0.00 0.00 0.00 48 1010.9
20260510012031 20 171 0.0 0.0 0.00 0.00 0.00 49 1010.9
20260510011530 20 171 0.0 0.0 0.00 0.00 0.00 44 1010.5
20260510011026 20 171 0.0 0.0 0.00 0.00 0.00 43 1010.6
20260510010523 21 171 0.0 0.0 0.00 0.00 0.00 44 1010.5
20260510010020 21 171 0.0 0.0 0.00 0.00 0.00 49 1010.6
20260510005516 21 170 0.0 0.0 0.00 0.00 0.00 42 1010.3
20260510005014 22 170 0.0 0.0 0.00 0.00 0.00 42 1010.3
20260510004511 22 170 0.0 0.0 0.00 0.00 0.00 41 1010.1
20260510004009 22 166 0.0 0.0 0.00 0.00 0.00 43 1010.1
20260510003505 22 167 0.0 0.0 0.00 0.00 0.00 41 1010.3
20260510003000 22 168 0.0 0.0 0.00 0.00 0.00 41 1010.1
20260510002457 23 169 0.0 0.0 0.00 0.00 0.00 41 1010.0
20260510001953 23 170 0.0 0.0 0.00 0.00 0.00 41 1010.1
20260510001451 23 169 0.0 0.0 0.00 0.00 0.00 40 1010.1
20260510000948 23 169 0.0 0.0 0.00 0.00 0.00 40 1010.2
20260510000444 23 169 0.0 0.0 0.00 0.00 0.00 38 1010.1
20260509235941 23 169 0.0 0.0 0.00 0.00 0.00 39 1009.9
20260509235437 24 170 0.0 0.0 0.00 0.00 0.00 38 1010.0
20260509234934 25 170 0.0 0.0 0.00 0.00 0.00 34 1009.8
20260509234430 25 170 0.0 0.0 0.00 0.00 0.00 36 1009.9
20260509233929 25 169 0.0 0.0 0.00 0.00 0.00 35 1009.8
20260509233426 25 169 0.0 0.0 0.00 0.00 0.00 33 1009.9
20260509232922 25 165 0.0 1.6 0.00 0.00 0.00 35 1009.6
20260509232420 25 172 0.0 0.0 0.00 0.00 0.00 35 1009.5
20260509231915 25 173 0.0 0.0 0.00 0.00 0.00 38 1009.8
20260509231412 25 170 0.0 0.0 0.00 0.00 0.00 40 1009.6
20260509230911 26 175 0.0 1.6 0.00 0.00 0.00 40 1009.7
20260509230407 26 174 0.0 0.0 0.00 0.00 0.00 39 1009.7
20260509225902 26 171 0.0 0.0 0.00 0.00 0.00 35 1009.7
20260509225400 26 147 0.0 0.0 0.00 0.00 0.00 36 1009.5
20260509224855 26 168 0.0 0.0 0.00 0.00 0.00 36 1009.7
20260509224351 26 165 1.6 1.6 0.00 0.00 0.00 33 1009.7
20260509223849 26 172 0.0 0.0 0.00 0.00 0.00 34 1009.6
20260509223345 26 165 1.6 3.2 0.00 0.00 0.00 37 1009.9
20260509222843 26 175 0.0 0.0 0.00 0.00 0.00 36 1009.7
20260509222343 26 175 1.6 1.6 0.00 0.00 0.00 36 1009.7
20260509221839 26 175 0.0 0.0 0.00 0.00 0.00 38 1009.9
20260509221337 27 169 0.0 0.0 0.00 0.00 0.00 37 1009.9
20260509220836 27 167 0.0 0.0 0.00 0.00 0.00 38 1009.8